Theta_e
327 330 330 330 330 328 327 326 324 324 325 324 323 321 323 328 321 318 333 345 336 332 335 337 341 346 345 343 342 339 338 338 335 341 356 363 362 361 358 355 353 351 350 353 356 356 357 359 359 359 358 358 359 358 356 355 354 356 357 356 357 358 360 360 355 347 344 344 344 346 348 350 351 354 356 357 358 359 359 356 354 354 355 351 345 342 339
327 329 329 330 330 328 327 327 326 326 326 324 324 325 325 327 326 326 332 339 337 334 334 335 337 340 340 338 339 338 337 337 336 341 353 359 359 361 360 357 354 350 348 350 354 357 358 358 359 360 359 359 359 358 356 354 353 354 355 356 357 357 358 360 358 353 348 346 346 347 350 352 352 353 356 357 358 358 359 357 355 354 354 352 348 343 341
325 329 330 329 329 328 327 326 328 328 327 326 325 325 325 325 327 328 328 331 333 333 335 337 336 337 338 340 340 338 339 338 336 339 343 345 348 349 350 353 355 349 345 345 350 356 358 358 359 359 359 360 360 359 358 356 353 353 354 356 356 356 358 359 360 359 354 350 350 351 351 353 355 355 356 357 357 357 357 358 357 355 354 353 349 345 343
323 328 329 328 329 328 325 324 327 328 327 326 325 326 326 325 326 327 326 325 329 333 335 336 336 337 338 339 340 340 339 339 338 338 337 337 342 342 341 348 354 352 345 341 344 351 354 357 359 359 360 361 361 361 361 358 356 353 353 357 357 356 358 360 361 361 358 357 356 355 356 358 358 357 357 357 357 357 357 357 357 357 355 353 350 347 345
322 327 328 327 327 324 321 324 327 329 329 328 327 329 330 328 326 325 323 324 331 337 336 334 335 335 338 339 338 337 339 340 339 340 338 335 338 341 345 352 354 352 350 347 344 346 349 352 355 357 358 360 361 362 361 360 358 355 354 355 356 357 359 362 364 363 362 362 361 360 360 359 359 359 359 358 357 356 357 358 357 357 355 352 350 347 344
321 326 328 327 324 320 322 328 330 330 330 329 328 329 330 330 329 328 327 329 335 338 334 334 335 335 336 338 337 335 337 338 338 340 339 336 335 336 342 348 351 353 355 354 350 349 349 348 350 354 358 361 362 362 362 362 360 357 357 358 358 359 360 363 365 365 365 365 365 363 361 360 359 360 359 358 357 357 357 358 358 358 355 351 349 346 344
321 325 326 323 320 323 328 332 333 331 330 330 330 330 331 332 331 331 332 331 333 336 334 333 335 335 334 333 333 333 334 334 336 336 337 337 337 335 336 340 348 355 359 358 356 354 351 351 355 358 359 362 362 362 362 363 362 359 358 360 361 360 362 365 365 366 367 367 366 364 362 360 359 359 358 357 356 356 358 358 358 357 355 351 347 344 343
324 324 324 322 324 328 331 333 333 332 331 330 328 327 329 331 331 334 340 338 335 335 333 331 331 332 331 330 332 332 332 332 334 334 334 334 335 336 335 335 342 350 353 356 358 356 354 357 361 360 359 362 364 363 362 363 363 360 359 363 364 362 363 366 367 368 368 366 364 363 361 360 360 360 358 356 355 357 358 359 358 357 355 352 347 343 342
326 323 322 325 327 327 330 335 335 335 333 332 330 328 331 335 336 337 342 341 338 338 337 336 334 332 333 334 332 331 330 330 332 332 332 333 333 335 335 333 335 339 340 345 353 357 358 360 361 361 361 364 366 364 363 364 363 361 362 364 365 364 367 369 369 368 367 365 363 362 360 360 361 359 357 356 357 358 358 358 358 357 355 353 349 346 344
327 324 323 327 325 325 331 338 338 337 335 334 336 333 333 342 346 342 341 342 342 341 342 344 342 341 341 338 334 331 331 330 331 331 331 332 332 332 333 332 333 335 335 341 352 357 357 359 360 361 363 366 367 365 365 365 364 363 365 366 367 369 370 370 369 368 366 364 361 359 358 359 359 356 355 356 358 358 358 359 358 356 355 353 350 349 346
327 325 324 326 325 329 339 342 337 337 336 335 337 330 330 344 351 345 343 344 342 343 345 347 346 345 342 339 335 332 331 331 332 331 332 332 332 332 332 331 332 335 336 344 354 357 357 357 360 362 365 368 367 366 366 367 365 365 367 369 370 371 370 369 368 366 363 362 359 355 355 356 355 353 353 355 357 358 357 358 357 356 355 353 351 349 348
328 327 326 326 327 335 344 340 334 336 336 336 333 325 327 344 350 345 345 346 344 346 349 348 346 345 343 342 341 336 331 331 332 332 333 333 333 332 332 334 342 347 349 353 358 359 356 354 358 362 367 369 368 366 367 367 365 366 369 370 370 369 368 367 364 358 355 355 354 352 352 353 353 353 353 354 356 357 356 356 357 356 355 353 351 350 349
327 327 327 328 331 339 342 337 335 337 336 333 329 327 335 346 345 342 345 345 344 348 349 348 349 348 346 344 342 336 333 333 332 334 337 337 338 336 333 340 354 361 360 360 359 357 353 352 359 366 368 369 368 367 367 368 367 368 369 369 367 366 365 363 358 353 352 351 349 349 351 353 354 353 353 353 355 357 356 356 356 355 354 353 351 349 347
327 328 330 329 332 339 340 336 336 336 333 331 331 336 344 345 342 342 345 344 345 348 348 349 351 349 347 346 342 336 334 333 336 341 341 337 337 338 336 341 353 361 362 360 356 355 355 356 362 368 368 368 368 367 368 369 369 369 368 367 364 364 363 360 357 355 352 349 348 351 353 354 353 353 353 354 355 356 356 356 355 354 354 353 350 348 345
327 328 329 327 328 337 339 335 335 337 335 336 339 342 343 342 342 344 345 345 347 347 347 350 350 349 349 348 345 342 339 336 339 346 347 343 343 348 352 355 357 360 360 359 357 358 359 361 366 368 368 368 367 368 368 369 370 370 369 366 363 361 359 355 352 349 346 344 346 349 351 352 352 353 354 354 354 355 355 354 353 352 351 350 348 347 345
324 323 325 328 331 336 336 335 337 339 339 341 342 342 341 341 341 342 343 344 343 342 343 346 348 349 350 346 343 344 342 338 340 348 352 353 352 355 361 363 363 363 361 359 360 362 363 365 367 367 367 367 367 367 369 370 370 369 365 361 358 356 353 346 341 341 344 344 343 345 348 349 350 352 353 353 354 354 354 354 352 351 349 348 346 345 343
329 327 330 334 337 336 335 338 340 341 340 340 339 339 339 339 338 341 344 345 343 343 344 344 346 351 353 350 349 348 346 346 348 350 354 358 357 357 363 366 365 365 364 362 363 365 366 367 367 367 367 367 367 368 368 368 367 363 356 351 349 347 344 342 340 344 346 345 345 347 349 349 349 351 352 354 353 352 352 352 351 349 349 347 345 344 342
337 339 339 338 338 337 336 337 338 337 337 338 338 339 340 338 338 342 346 347 347 348 349 349 350 351 351 352 353 351 350 351 352 349 352 358 359 358 360 363 363 365 366 366 366 367 367 367 367 368 367 366 368 368 366 363 358 351 343 340 340 341 343 344 345 346 347 347 348 350 351 350 350 351 351 352 352 351 351 350 349 348 348 347 346 344 341
340 342 342 339 338 338 336 335 336 336 336 337 339 340 341 341 341 344 346 347 347 347 348 350 348 346 347 349 350 351 351 352 352 353 353 356 358 357 356 358 361 363 365 367 367 367 368 368 368 367 366 365 363 360 357 352 344 338 335 335 338 343 346 347 347 348 348 348 350 352 352 351 350 351 351 350 349 350 350 348 348 348 347 347 346 343 341
342 342 341 339 338 337 335 335 336 337 338 339 339 340 342 342 341 341 341 341 341 342 344 346 345 344 345 346 347 349 351 351 352 354 354 355 357 357 358 359 360 361 363 364 365 366 367 367 366 363 362 361 356 353 354 352 344 338 338 340 342 345 346 346 347 349 350 351 351 351 351 350 350 350 350 349 348 348 348 347 348 347 347 347 346 343 341
342 340 339 339 339 338 337 336 335 337 338 339 339 338 338 338 338 338 337 336 336 337 338 340 342 342 342 344 345 345 347 349 350 350 353 356 357 358 360 360 358 359 360 360 361 363 363 363 363 362 361 361 359 358 359 355 348 343 343 344 343 345 347 349 351 352 352 352 351 350 349 348 348 347 347 348 348 347 347 347 347 347 346 345 344 342 341
341 339 338 339 339 339 338 337 335 336 337 337 337 336 335 335 334 335 335 334 334 334 334 335 337 339 339 341 343 343 344 347 347 348 351 354 355 356 356 354 353 356 357 355 356 357 357 357 358 357 357 358 357 354 352 348 343 340 341 343 344 346 349 351 351 351 351 351 350 349 348 347 347 347 347 347 346 347 347 346 346 345 344 342 341 340 340
337 337 337 338 338 338 337 337 336 336 335 335 334 333 333 332 332 332 331 331 331 332 331 332 333 335 336 337 339 341 343 344 345 346 349 352 354 355 354 351 352 355 355 354 354 353 352 350 349 350 353 353 350 344 341 341 340 339 340 344 347 350 350 349 349 349 349 348 348 348 347 346 346 345 346 346 345 346 345 344 344 344 342 339 338 338 338
335 336 337 337 336 335 335 334 334 335 335 334 334 333 332 330 329 328 328 327 328 328 328 328 330 332 333 333 334 337 339 341 343 345 346 348 351 355 355 354 354 355 355 354 354 353 352 351 351 353 354 352 346 342 340 340 341 343 347 350 350 350 349 347 347 348 348 347 347 347 346 346 345 344 344 344 344 344 343 342 343 342 339 337 337 336 336
335 334 334 334 333 333 333 332 332 332 332 332 332 333 332 330 329 327 325 325 326 325 325 325 325 327 328 330 332 333 334 336 339 342 344 346 348 350 352 353 353 353 353 353 353 353 354 354 354 354 354 353 350 349 348 347 348 349 350 350 348 347 347 346 344 345 346 346 345 344 344 344 344 344 344 343 343 342 341 340 340 339 337 336 335 335 335
334 334 332 332 332 332 332 331 331 330 330 329 330 329 328 328 328 328 327 326 326 326 326 324 322 322 324 325 327 329 330 332 334 338 340 343 345 346 347 349 351 352 352 352 351 349 348 348 348 348 349 349 349 347 346 346 348 350 349 348 347 346 346 345 343 343 345 344 342 342 342 343 343 343 342 341 341 341 340 339 339 338 336 334 333 334 336
331 332 332 332 332 331 330 330 329 329 328 328 327 326 326 326 327 328 329 328 327 327 327 325 322 321 322 322 323 324 324 326 330 335 337 338 340 343 344 346 348 350 350 351 350 348 346 346 346 347 347 345 341 339 340 343 347 349 349 347 346 345 345 344 343 343 343 343 341 340 340 340 341 341 340 339 339 340 339 338 336 336 335 333 333 334 336
328 329 330 331 331 330 329 329 329 328 327 327 326 325 325 326 326 327 328 328 328 328 327 325 324 322 322 323 323 322 321 320 323 329 334 334 335 338 342 344 345 347 347 347 348 349 349 349 349 349 348 346 342 338 337 340 344 347 347 346 345 345 344 342 342 342 341 340 339 339 338 339 339 339 338 338 338 338 337 335 333 333 332 332 333 334 334
325 327 328 329 329 328 328 328 328 327 327 327 327 326 326 326 327 327 325 324 326 328 327 326 323 321 322 324 323 322 322 320 318 322 326 327 329 335 341 342 343 345 346 346 346 347 347 347 349 349 347 347 346 342 338 338 341 342 342 342 341 341 342 342 341 341 340 339 338 338 338 338 338 337 336 337 336 336 335 335 334 332 331 332 332 332 331
324 324 325 326 326 325 326 326 326 326 325 326 326 326 327 328 328 328 325 323 323 325 326 325 324 322 322 322 321 321 322 322 320 320 320 318 319 328 337 341 341 342 344 344 346 347 345 342 344 346 345 345 347 346 343 342 342 341 339 338 338 339 340 341 340 340 340 339 337 336 336 337 337 336 335 335 335 335 336 336 333 330 329 331 331 329 329
323 323 324 324 324 325 325 325 325 326 326 326 325 325 326 327 327 328 327 326 325 324 322 321 323 324 323 321 321 322 324 325 325 324 320 316 313 318 328 334 336 338 341 343 344 344 344 341 341 343 343 342 342 343 344 343 342 341 339 339 339 340 340 339 339 339 339 338 336 335 336 337 337 336 335 335 335 335 335 334 332 330 330 330 330 330 330
324 324 324 324 324 325 325 324 324 324 325 326 326 325 325 325 325 326 327 327 327 326 323 320 320 321 320 320 321 322 325 327 328 326 323 317 313 312 317 321 322 325 331 337 341 341 341 341 341 341 341 340 339 341 342 341 340 340 339 338 338 339 339 339 340 340 339 337 335 336 337 337 337 337 337 336 335 335 335 334 333 332 331 330 329 329 328
324 325 325 325 325 325 325 325 324 323 323 325 326 325 325 325 325 325 325 325 326 327 327 325 324 322 321 321 321 321 324 328 330 328 323 317 313 314 316 319 322 322 319 321 331 338 339 340 341 342 341 340 339 339 339 339 338 337 337 337 337 337 336 337 340 340 338 337 336 337 338 337 337 337 337 335 335 335 334 333 332 331 331 329 328 327 326
324 324 324 325 324 324 324 325 325 325 324 324 325 325 325 325 325 325 325 325 325 325 326 326 327 326 326 326 325 324 325 326 326 326 323 319 318 319 317 319 328 332 322 312 319 331 336 338 340 340 339 339 339 337 336 336 335 335 336 336 336 334 334 336 338 338 337 336 337 337 337 336 336 335 334 333 333 333 333 333 332 331 331 330 329 328 327
324 324 324 324 324 324 323 324 325 325 325 324 324 324 325 325 324 325 325 325 325 325 325 325 326 326 326 327 326 326 327 327 326 325 325 324 325 325 322 320 327 332 326 316 317 326 333 337 340 340 338 338 337 336 335 335 335 335 335 335 333 332 332 334 335 335 336 336 337 337 336 335 334 334 333 333 332 332 332 332 331 330 330 330 329 329 328
324 324 324 324 324 324 324 323 324 324 324 324 324 323 323 324 324 324 324 325 325 325 325 325 326 326 326 326 326 326 327 328 328 327 328 327 327 328 327 327 329 331 330 326 322 325 330 333 334 336 338 337 334 334 335 334 334 334 334 334 333 333 333 333 334 334 335 336 336 335 335 334 333 333 332 332 331 330 330 330 329 329 329 328 328 328 328
324 325 324 324 324 324 323 323 323 323 323 323 323 323 323 323 324 324 324 325 325 325 325 325 326 326 326 326 327 327 327 328 328 328 328 329 328 327 327 328 329 330 331 330 326 327 330 328 325 329 335 336 333 333 334 333 333 334 334 334 335 335 335 334 334 334 335 335 335 334 334 333 332 331 331 330 330 330 329 329 328 328 327 327 327 326 326
324 324 324 323 323 323 323 322 322 323 323 323 324 324 324 324 324 324 324 325 325 325 325 325 325 326 326 326 326 327 327 327 328 328 328 329 329 327 326 327 327 328 328 329 329 330 331 330 329 332 335 335 334 334 333 332 332 333 334 335 335 335 335 335 334 333 334 334 333 333 332 331 331 330 329 329 329 329 328 328 327 326 326 326 326 325 324
323 323 323 323 322 322 322 322 322 322 323 323 324 324 324 324 324 324 325 325 325 325 325 325 325 325 325 326 326 326 326 327 327 328 328 328 329 329 328 327 328 328 328 329 331 330 329 330 332 333 333 334 334 333 332 331 332 332 334 336 336 335 335 335 334 333 333 333 333 332 331 330 330 329 329 329 328 328 328 328 327 326 326 326 325 324 323
322 322 322 322 322 322 322 323 323 323 323 323 323 324 324 324 325 325 324 324 324 324 325 325 325 324 325 325 325 325 326 326 327 327 327 327 328 328 329 329 330 329 328 329 330 329 328 329 330 331 331 332 333 332 331 332 333 333 333 334 333 332 333 334 333 332 333 332 332 331 329 329 329 329 328 328 328 327 327 326 325 325 325 324 324 323 322
321 321 321 322 322 322 322 323 322 322 322 323 323 323 323 323 324 324 324 324 324 324 324 324 324 324 324 324 325 325 325 326 326 326 327 327 327 328 328 328 328 328 328 327 327 327 327 328 330 331 331 331 330 330 331 332 332 331 332 332 330 331 332 332 331 331 331 331 330 329 328 328 328 328 327 327 326 326 325 325 323 323 323 323 322 322 321
320 321 321 321 321 321 321 322 322 321 321 321 321 321 321 321 322 322 322 322 322 322 322 322 322 323 323 324 324 324 324 325 325 325 326 326 326 327 328 327 326 326 327 327 327 327 327 328 328 329 330 329 328 328 329 330 330 330 330 331 330 331 332 331 331 330 330 330 329 328 327 327 326 326 325 324 324 323 323 323 322 321 322 321 321 320 319
319 319 320 320 320 320 320 320 320 320 320 320 320 319 319 319 319 320 320 319 319 319 319 319 320 320 321 322 323 323 324 324 324 324 325 325 324 325 326 326 325 324 325 326 326 327 327 327 326 325 326 326 327 327 328 329 329 328 329 329 330 330 330 330 329 329 328 328 327 327 326 325 325 324 323 323 322 321 321 320 320 319 319 319 319 318 318
319 319 319 318 318 318 318 318 318 318 318 318 318 318 318 318 318 318 318 318 318 318 318 318 318 318 319 320 321 322 323 323 323 323 324 324 323 322 322 321 319 319 322 325 327 326 325 324 323 323 323 323 324 325 327 327 327 327 328 328 328 328 328 328 326 326 326 326 325 325 324 323 323 322 321 321 321 320 319 319 319 319 318 318 317 317 317
319 319 319 319 318 318 318 318 318 318 317 317 317 317 317 317 317 317 317 317 317 318 318 317 317 318 318 318 319 320 320 320 321 321 322 322 322 320 318 316 314 315 320 324 326 325 324 322 320 321 321 321 321 323 325 326 326 326 327 326 326 325 325 325 324 324 324 324 323 323 323 322 321 321 320 319 319 319 319 318 318 318 317 317 317 316 316
319 319 319 319 319 319 318 317 317 317 316 316 316 316 316 316 316 316 317 317 317 317 317 317 317 317 317 317 317 317 317 318 318 318 319 321 321 320 318 317 314 315 319 322 323 322 321 321 320 319 319 319 320 322 324 324 324 324 325 325 325 324 324 324 324 323 323 323 322 322 322 321 321 320 320 319 319 319 319 318 318 317 317 316 316 315 314
319 319 319 319 319 318 318 317 316 316 316 316 316 316 316 316 316 316 316 316 316 317 317 316 316 316 316 316 317 316 316 317 317 316 316 318 319 318 318 318 317 316 318 320 320 319 318 318 317 318 318 318 319 321 323 323 322 322 322 323 323 323 323 323 323 323 322 322 322 322 321 321 320 320 320 319 319 318 318 318 317 316 315 315 314 314 313
318 318 318 317 317 317 317 316 316 316 316 316 316 316 316 316 316 316 316 316 316 316 316 316 316 316 316 316 317 316 316 317 317 316 315 317 318 316 316 317 318 317 317 318 318 318 317 316 316 317 317 317 317 320 322 322 322 321 321 320 320 321 321 322 322 321 321 321 321 321 320 320 320 319 319 318 318 317 317 316 315 315 314 314 314 314 313
317 317 317 317 317 317 317 317 317 317 317 316 316 316 316 316 316 316 316 316 316 316 316 316 315 315 316 316 316 316 316 316 316 316 316 316 317 316 316 316 316 316 316 317 317 317 318 317 317 317 316 316 317 320 322 323 322 321 321 321 320 319 319 320 320 320 320 320 320 319 319 319 318 318 318 317 317 316 316 315 314 314 314 313 313 314 314
317 317 317 317 317 317 317 318 318 317 317 316 316 316 316 316 316 316 316 316 316 316 316 316 315 315 316 316 316 316 316 316 316 316 316 316 316 316 316 315 315 315 316 316 317 317 318 319 318 318 317 318 319 320 321 322 322 321 321 321 321 320 320 319 319 319 319 319 318 318 318 318 317 317 317 316 316 315 315 315 314 314 314 314 314 314 314
317 318 317 317 317 317 317 317 318 318 317 316 316 316 316 316 316 316 316 316 316 316 316 316 316 315 315 315 315 316 316 315 315 316 316 315 315 315 315 315 315 315 315 315 315 316 317 317 318 318 318 318 318 318 318 319 319 320 320 320 319 319 320 320 319 319 318 318 318 318 317 317 317 317 316 316 315 315 314 315 315 314 314 314 314 314 314
317 318 318 317 317 317 317 317 317 318 317 316 316 316 316 316 316 316 316 316 316 316 316 316 316 315 314 315 315 315 315 315 315 315 315 315 314 314 314 314 314 314 314 314 315 315 315 316 316 317 317 317 317 317 317 317 318 318 318 318 318 318 318 319 319 319 319 319 318 318 317 317 317 317 316 316 315 315 315 315 315 315 315 315 315 314 314
Wind_Speed
23 22 20 18 16 16 17 18 20 21 22 23 22 19 19 16 12 11 10 8 10 13 17 15 10 7 6 8 13 14 11 11 16 11 14 22 22 26 28 28 30 32 31 30 31 35 38 39 41 43 43 44 44 43 43 43 42 40 40 42 43 43 43 43 43 44 44 43 44 43 42 42 41 40 38 36 36 36 35 35 32 29 31 38 41 39 37
22 24 24 23 19 17 18 18 19 20 22 23 23 20 22 23 19 16 14 11 11 13 16 18 15 11 10 9 15 19 19 20 21 16 15 20 19 20 22 25 29 29 29 30 30 32 36 38 39 41 42 43 45 45 44 44 43 41 40 43 44 44 45 43 42 42 43 43 43 43 42 42 41 41 39 37 36 36 36 35 33 31 33 38 40 40 39
16 23 25 24 23 20 18 19 19 21 22 23 22 20 20 21 19 19 18 15 13 12 12 15 17 18 16 11 12 16 19 23 25 23 21 22 22 23 19 20 25 27 27 30 31 32 35 37 39 41 42 43 44 43 42 43 45 43 42 43 45 45 45 43 42 41 41 42 42 42 43 42 40 40 39 38 36 36 37 37 35 35 37 38 39 39 39
11 17 22 24 23 21 21 20 20 23 23 18 17 17 18 17 15 16 17 15 12 10 10 12 13 15 16 13 13 16 16 20 24 25 26 25 22 26 28 28 30 30 29 30 33 34 36 37 39 41 42 42 42 42 42 42 44 43 42 44 45 45 45 43 41 41 40 41 41 41 41 40 39 39 38 38 37 36 38 38 37 37 38 39 38 37 37
10 15 17 18 18 18 18 17 19 22 20 16 15 17 19 19 16 12 12 10 9 8 10 12 12 13 15 13 15 18 16 16 19 20 24 26 22 21 27 32 32 31 30 31 33 34 35 36 37 40 43 43 44 44 42 41 42 42 42 44 45 45 44 42 40 40 40 40 40 39 39 38 37 37 37 37 36 36 36 36 36 36 37 38 37 36 35
10 14 15 13 14 14 12 12 17 21 20 20 20 18 18 20 16 13 13 12 9 8 9 11 11 12 13 11 15 21 20 17 17 17 19 24 25 23 22 26 31 31 31 31 31 32 32 31 33 36 40 42 43 43 40 39 41 42 41 42 44 44 43 41 40 40 40 39 38 37 37 36 34 33 35 35 34 34 35 35 35 35 36 37 36 35 35
9 10 12 14 14 12 10 10 13 17 20 21 21 20 20 16 11 12 15 16 14 11 9 11 11 14 21 22 18 20 23 24 25 25 24 22 21 22 21 21 25 29 29 30 31 31 29 28 30 34 38 39 41 42 40 39 41 42 40 40 42 43 42 41 41 41 39 38 36 35 34 32 30 29 30 31 31 32 33 34 35 35 35 36 35 35 34
8 9 12 13 10 9 12 12 10 13 18 20 19 19 20 15 8 6 7 7 10 10 13 18 19 20 24 27 23 21 23 26 29 30 30 29 26 26 27 27 25 25 26 28 30 30 28 29 31 32 35 37 38 40 41 40 41 41 39 39 40 42 42 41 41 41 40 37 35 32 31 29 27 25 26 26 26 29 32 32 32 33 32 33 35 35 34
8 10 11 9 8 10 12 10 6 5 10 13 11 9 10 8 5 6 9 11 11 8 5 11 14 16 18 17 19 26 31 32 33 32 31 31 32 32 32 33 32 29 28 29 31 31 29 30 32 32 33 35 37 39 40 40 40 41 40 39 40 40 39 39 39 39 38 36 33 29 27 25 24 24 25 24 23 27 30 31 31 30 29 29 32 35 35
9 10 10 9 11 10 6 4 2 3 3 2 1 2 3 3 9 9 7 8 11 12 11 10 10 9 9 8 12 25 33 33 32 33 33 34 37 37 35 35 37 36 34 34 34 33 31 31 32 32 33 35 37 39 40 40 40 40 39 38 38 37 35 32 31 31 32 32 30 26 23 23 22 21 21 23 24 26 29 30 30 29 28 26 29 32 33
9 11 10 9 10 6 1 1 2 4 4 5 4 1 5 4 11 10 7 7 8 9 10 11 12 9 6 5 7 17 24 23 26 32 35 38 40 39 37 37 39 41 39 37 36 33 32 32 32 33 35 36 38 40 40 39 39 39 38 36 35 34 31 28 26 27 27 28 28 24 21 22 21 18 18 20 21 23 26 28 28 27 27 27 28 30 30
9 9 8 8 7 3 5 4 3 5 4 5 1 5 4 5 10 10 8 7 7 8 11 10 6 5 6 7 13 16 14 18 27 32 29 27 29 33 34 32 30 34 38 37 36 34 31 31 33 34 36 36 37 39 39 38 39 38 37 35 32 31 29 27 25 25 23 25 25 23 21 21 19 16 16 16 17 19 22 24 26 27 27 27 28 29 28
9 9 8 7 4 3 8 8 5 4 2 1 3 5 1 5 8 10 10 9 9 9 10 9 6 7 10 13 20 25 23 24 29 27 19 14 15 22 31 30 23 27 33 32 31 30 29 31 34 36 36 36 37 38 38 37 38 37 36 34 31 29 28 26 25 23 21 21 21 20 20 19 17 16 15 14 15 18 20 22 24 26 27 26 26 27 25
9 8 7 6 5 4 8 10 8 7 5 2 2 2 3 6 9 12 13 13 14 14 12 11 11 14 16 17 19 23 29 31 28 22 16 15 14 19 28 33 29 26 28 27 27 27 28 32 36 37 37 38 38 38 37 36 36 36 35 32 30 29 29 27 25 23 20 19 19 17 17 16 15 15 14 13 16 19 21 21 22 23 25 25 23 23 22
8 8 8 8 7 6 11 12 8 5 3 2 3 4 7 10 13 15 16 18 20 21 20 18 18 18 17 18 18 20 28 30 21 16 12 10 8 8 13 24 29 27 27 27 26 27 30 34 37 37 38 39 39 38 37 35 35 35 34 33 32 31 30 27 24 22 19 18 19 18 17 16 16 15 14 15 18 20 22 22 20 19 22 22 21 22 23
9 10 9 6 3 6 12 10 5 6 5 6 7 6 8 11 13 13 14 15 18 20 23 25 25 22 18 18 18 20 26 27 17 9 8 2 6 6 8 15 19 21 24 26 26 28 31 35 36 37 39 40 39 38 37 36 36 36 35 33 32 30 28 26 23 22 20 18 19 19 18 18 17 16 15 16 19 21 21 22 20 19 20 21 21 22 22
5 3 3 1 3 8 11 10 11 12 11 10 9 9 9 9 10 12 12 12 14 15 18 22 24 23 18 16 17 20 21 15 7 5 6 4 1 6 10 13 16 18 22 25 28 30 31 34 36 36 38 40 39 38 38 37 36 35 33 31 30 29 28 25 23 21 19 17 17 17 18 18 17 17 18 19 20 21 21 21 19 19 20 21 23 23 22
7 8 6 5 6 7 12 13 13 11 10 11 12 13 12 10 9 11 13 13 16 18 16 15 16 17 17 16 15 17 16 12 6 5 6 2 3 1 4 8 14 20 23 26 29 30 30 33 33 34 37 39 38 37 36 34 33 33 32 31 31 30 28 25 23 21 19 18 17 17 17 17 17 17 18 19 20 21 21 21 20 20 21 23 24 23 23
4 5 6 9 10 5 9 12 11 11 12 13 14 15 16 15 14 13 14 16 19 22 22 19 16 17 18 18 16 14 12 11 8 4 8 6 2 1 2 2 7 16 24 27 30 30 31 31 32 35 37 37 36 35 33 31 32 32 32 32 31 30 28 26 24 22 19 19 19 18 18 17 17 17 17 16 16 19 20 21 21 22 23 24 24 25 25
3 6 6 12 18 17 14 13 13 15 16 16 17 18 19 19 19 19 21 23 24 26 26 22 20 20 20 18 18 17 11 7 8 5 3 8 8 10 11 9 9 15 21 26 28 30 31 30 31 34 33 30 30 30 27 26 29 31 31 30 30 29 26 24 23 21 19 18 19 18 18 17 16 16 16 15 15 18 19 20 21 22 21 21 22 25 27
6 9 7 9 15 18 17 15 15 16 17 19 20 21 21 21 21 22 24 27 27 27 28 26 26 28 28 23 19 18 14 12 13 11 10 15 17 18 20 18 16 19 22 24 25 27 29 29 28 29 28 26 26 25 21 21 27 30 29 27 26 24 22 20 20 20 20 19 18 16 15 13 13 14 16 16 16 17 18 18 18 17 17 17 19 23 27
5 5 5 5 7 9 12 15 17 17 17 19 21 22 22 23 23 22 23 25 26 28 29 29 29 30 30 28 25 21 17 12 11 11 16 22 21 19 20 19 18 20 23 23 23 24 26 27 27 28 29 27 25 24 23 23 25 25 23 21 21 20 19 18 18 19 20 19 17 14 11 10 11 13 15 16 16 15 16 17 16 15 16 16 16 19 23
3 3 4 7 9 10 10 14 16 17 17 20 22 22 21 21 22 24 24 24 24 26 28 29 30 30 31 31 30 27 21 14 10 11 18 25 24 20 19 19 19 21 23 24 25 25 26 26 26 26 26 24 22 22 22 22 21 19 19 20 19 19 19 18 17 17 17 17 15 14 12 11 11 12 13 15 16 16 15 15 15 15 16 15 14 15 17
3 5 7 10 13 15 13 14 16 16 16 18 20 20 19 20 21 24 26 26 25 25 26 28 29 29 30 31 32 31 27 21 16 16 19 22 23 23 23 22 22 23 25 26 26 25 25 25 24 24 22 20 20 20 19 19 19 20 20 20 18 18 19 18 17 16 15 15 14 13 13 12 12 13 13 15 16 16 15 14 14 16 16 15 14 14 13
3 11 16 16 17 17 16 16 17 17 16 16 17 17 16 17 18 21 23 24 23 23 25 26 27 28 30 32 32 32 31 29 26 24 24 23 24 25 24 23 22 23 23 23 23 23 23 23 22 22 21 19 18 18 19 19 19 19 18 17 17 18 20 19 18 16 14 13 12 12 13 13 14 14 14 15 17 17 16 15 15 17 17 17 15 13 11
6 13 19 20 17 16 16 16 16 15 14 15 15 13 12 13 15 17 19 19 19 19 21 23 24 24 27 30 31 31 31 30 29 29 28 27 26 26 24 22 21 21 20 20 19 18 19 18 18 20 19 18 17 17 17 19 19 16 13 13 15 18 20 20 17 14 12 11 10 11 13 13 13 13 13 14 16 17 17 17 18 19 20 19 15 11 11
13 11 13 15 15 16 17 16 15 15 14 14 14 12 10 9 10 11 13 14 14 15 17 19 19 19 20 22 24 26 27 27 28 29 29 28 27 26 24 21 20 19 19 18 17 16 16 15 15 16 16 15 14 13 14 19 19 15 12 12 14 15 16 15 13 11 10 9 8 9 11 12 12 11 11 12 14 16 17 18 19 20 21 20 15 12 11
20 19 17 15 15 15 15 14 14 15 15 15 14 14 12 12 12 11 11 11 10 9 11 15 18 19 18 17 17 19 22 24 27 28 28 27 26 25 24 21 19 19 18 17 16 16 15 14 14 14 14 13 11 11 13 17 18 16 14 14 15 14 12 10 10 10 10 8 8 9 12 14 14 13 12 11 14 16 17 17 18 20 21 19 16 14 14
19 20 21 20 18 17 18 17 16 16 15 14 15 15 14 15 17 17 16 14 9 4 4 10 15 18 17 14 14 16 16 17 21 24 25 25 24 24 24 21 18 17 18 17 14 13 12 11 12 13 13 12 11 11 12 14 16 16 14 14 16 17 15 12 12 13 12 11 10 12 14 16 15 14 13 12 13 15 15 14 16 18 19 18 16 15 15
18 19 20 21 21 20 21 19 16 15 14 14 15 15 15 16 18 18 18 18 13 7 4 6 9 14 16 14 15 17 16 12 14 17 19 20 21 21 22 21 20 19 18 16 13 11 9 9 9 10 11 10 10 10 12 13 14 13 13 14 15 16 16 15 14 14 14 13 13 14 16 16 15 14 14 14 14 15 16 14 13 14 15 15 14 13 13
19 20 20 21 20 19 18 16 14 14 13 13 14 14 15 16 17 17 17 18 18 16 11 7 6 8 11 12 14 16 16 13 12 13 12 14 17 17 16 18 20 20 18 16 14 11 8 6 8 11 10 8 8 10 13 15 15 14 15 17 17 17 17 17 16 15 15 16 15 15 16 16 15 15 16 15 15 17 17 14 11 9 10 12 13 13 13
17 18 18 18 16 15 15 14 13 13 13 12 13 14 14 15 16 15 15 15 16 16 16 14 11 8 8 10 12 13 13 14 14 12 11 11 14 14 13 13 14 14 13 13 13 11 8 4 6 10 9 7 7 9 13 16 15 13 14 16 16 16 16 16 15 15 15 15 14 15 15 15 15 15 16 15 16 16 15 12 10 9 8 9 10 12 13
15 15 14 13 13 13 12 10 11 13 14 13 13 14 14 14 15 15 14 14 14 13 13 15 14 12 10 11 12 12 11 12 13 13 14 14 14 13 12 13 12 10 8 8 9 9 7 3 3 6 7 8 8 8 11 13 12 10 12 14 14 15 14 14 14 15 14 14 14 14 14 15 15 15 14 14 14 14 13 11 11 9 7 7 8 9 8
14 14 12 11 11 12 11 10 10 12 15 14 13 13 14 14 14 13 13 14 14 13 12 11 11 10 9 8 10 11 11 10 10 11 14 14 13 11 10 11 11 9 8 6 5 5 4 2 1 2 5 8 9 8 8 9 8 9 11 11 12 14 15 13 13 14 13 13 14 14 13 12 12 12 11 10 11 13 12 10 10 10 10 11 12 11 9
15 14 13 12 12 11 12 11 11 12 13 13 12 12 13 13 13 13 13 12 12 11 10 10 9 9 7 6 8 9 10 10 10 9 10 10 7 6 7 8 6 6 8 8 6 6 6 5 4 4 5 6 7 7 8 8 7 8 10 9 9 12 13 12 12 12 11 12 13 13 12 11 11 12 13 11 11 12 13 11 10 10 11 12 14 13 12
14 14 13 13 13 12 12 13 12 12 12 12 11 11 12 12 11 11 11 11 11 10 8 8 9 10 10 10 10 10 10 10 10 8 8 7 4 2 3 3 2 2 3 3 4 4 6 7 7 7 6 6 6 7 9 9 8 7 8 8 8 10 12 11 11 12 13 12 12 11 11 11 12 14 14 12 10 11 11 11 10 9 9 11 12 13 13
14 14 13 12 12 13 13 13 13 12 12 11 11 11 10 11 10 10 10 10 11 10 9 8 10 11 11 12 12 12 12 10 9 7 6 5 4 3 2 0 2 4 4 1 1 3 6 7 7 7 6 5 5 7 10 11 9 8 8 7 8 10 12 11 12 14 15 13 12 12 13 13 13 13 12 11 10 10 10 10 10 9 9 9 9 9 8
12 12 13 12 12 12 12 13 13 12 12 12 12 11 11 10 10 10 10 10 10 10 10 10 10 10 11 12 12 11 11 10 8 7 5 4 4 4 2 1 0 3 3 3 4 6 5 1 2 3 4 4 4 7 9 11 11 9 7 6 7 9 11 11 11 14 15 14 13 13 13 13 12 11 10 9 9 9 10 11 10 9 9 9 7 5 4
12 13 13 14 14 14 14 14 14 13 12 12 12 12 12 11 11 11 11 10 10 10 10 11 11 12 12 12 12 11 10 9 8 7 6 4 4 4 4 4 3 2 2 3 6 6 4 5 6 3 2 2 1 3 6 9 11 9 7 6 7 9 11 11 11 13 15 15 14 13 13 13 12 10 8 9 9 9 9 10 10 10 10 10 9 8 6
13 13 13 14 15 15 16 16 15 14 13 12 13 14 13 12 12 13 12 12 12 11 11 11 11 11 12 12 11 11 11 10 9 8 8 7 6 6 7 8 7 5 5 5 5 4 5 6 5 2 3 4 3 1 4 7 8 7 5 6 7 8 9 11 11 12 13 14 13 12 12 14 13 11 9 9 10 10 9 10 9 9 10 10 10 11 8
14 13 14 14 15 15 15 15 15 14 14 14 14 15 15 14 15 15 15 15 15 14 13 13 12 11 11 11 10 10 11 11 11 11 11 10 9 9 9 10 8 7 8 8 6 5 5 4 3 3 5 5 3 2 4 6 5 5 4 4 5 6 8 9 10 11 11 12 12 10 10 11 12 11 9 9 8 9 10 10 10 10 10 9 10 10 8
14 14 14 14 14 15 14 14 14 14 14 14 14 14 15 15 15 16 16 15 15 14 13 13 13 12 11 11 11 11 11 11 11 12 13 13 11 10 10 10 9 8 8 9 9 7 6 4 4 5 5 4 3 4 6 5 4 3 3 3 4 5 7 9 10 11 11 11 10 10 11 12 12 10 9 9 8 8 9 9 8 9 9 9 8 8 7
14 13 13 13 13 13 13 13 13 13 13 12 13 14 14 14 14 13 13 13 14 14 14 13 12 12 11 11 11 11 11 10 10 10 12 13 13 12 10 9 9 8 7 7 8 6 6 5 5 5 5 5 5 6 6 5 3 2 3 3 4 5 7 9 10 11 12 12 10 8 9 10 10 9 9 10 10 8 7 7 7 7 8 8 8 8 8
13 12 12 12 11 11 11 12 12 12 12 12 12 12 13 13 12 11 11 10 11 12 12 12 12 11 10 9 10 10 10 10 9 10 10 11 12 13 12 11 11 10 7 6 5 5 5 7 6 4 4 4 5 6 7 6 3 3 2 1 2 4 7 8 7 7 9 9 8 7 7 8 8 9 9 9 9 8 8 8 8 8 8 8 8 8 8
11 11 11 11 10 10 10 10 10 11 12 13 12 11 11 12 11 11 10 9 9 9 10 11 11 10 9 9 9 9 10 9 10 10 10 9 9 12 13 14 14 12 9 7 7 6 6 7 7 5 4 3 4 6 7 5 2 2 2 0 1 2 3 5 5 4 5 6 6 7 8 8 8 9 10 8 8 9 9 8 8 9 9 9 9 9 9
10 10 10 10 10 9 10 10 10 11 11 11 11 11 11 11 11 10 9 7 7 6 7 10 11 11 10 9 8 8 10 10 9 9 9 8 8 9 11 14 16 14 11 9 10 9 8 8 8 6 4 3 4 5 5 4 1 1 1 1 2 2 2 4 5 5 6 6 6 7 8 7 7 8 9 8 8 9 9 8 9 10 10 10 9 8 7
10 10 10 10 10 10 10 10 11 11 11 10 11 11 11 10 10 10 9 10 9 7 6 9 11 12 12 10 9 9 11 10 7 7 9 10 9 9 11 13 15 15 11 10 11 12 12 11 10 8 5 2 2 2 2 2 0 1 1 1 3 3 3 4 5 5 6 7 6 7 8 8 8 8 10 10 9 9 10 11 11 10 9 9 9 7 5
9 10 10 10 10 10 9 10 11 12 10 9 9 10 9 8 8 8 9 11 12 10 8 9 11 12 12 11 11 12 12 11 9 10 11 11 10 11 12 14 15 15 12 11 11 11 12 13 13 11 8 5 2 2 1 1 3 3 1 1 3 3 4 5 5 5 6 7 7 7 7 8 8 9 10 11 11 11 11 12 12 10 9 9 9 9 8
8 9 11 12 12 12 11 12 13 13 12 11 10 10 8 8 8 8 8 9 11 11 9 9 10 11 10 10 10 11 12 11 10 9 9 9 9 10 11 12 13 13 12 10 10 10 10 11 11 11 10 8 5 4 4 4 4 5 4 3 2 3 4 5 5 6 7 8 8 7 7 8 10 11 11 11 11 12 12 12 11 11 11 11 11 11 10
9 10 12 13 13 12 12 13 13 12 12 12 12 12 11 10 10 10 9 8 9 9 8 8 8 9 9 8 9 10 10 10 10 10 9 9 9 9 10 11 12 12 11 10 11 11 10 10 11 11 10 8 6 3 3 5 6 6 7 7 6 5 5 6 6 5 6 7 8 9 10 11 11 12 12 12 12 12 11 11 11 13 14 13 12 12 12
9 10 11 10 10 10 10 11 12 12 11 12 12 11 11 11 10 10 10 9 10 10 9 8 8 10 10 10 9 10 10 10 11 11 10 10 11 12 12 12 12 12 11 10 11 11 11 11 11 11 10 9 7 6 6 7 7 7 7 7 8 8 8 8 8 8 8 8 8 9 10 10 10 10 11 13 14 14 13 12 12 12 13 13 13 14 14
10 12 11 10 11 11 11 12 12 12 11 10 10 10 10 10 9 10 11 11 10 9 9 9 10 12 13 12 11 11 11 11 11 10 10 10 12 13 12 12 13 13 12 11 10 10 10 10 10 10 10 9 10 10 10 9 8 6 5 6 7 9 10 10 10 11 12 13 13 13 13 12 10 9 9 10 13 14 15 15 15 14 14 14 14 15 15
Wind_Direction
228 237 245 242 220 211 220 218 212 215 225 234 232 225 226 230 235 237 224 213 227 247 258 251 227 209 201 164 170 201 223 238 259 253 170 164 165 163 172 181 185 191 196 200 205 205 206 208 207 207 207 205 204 204 205 204 203 203 204 204 206 209 212 214 216 219 221 221 221 220 221 221 220 218 216 214 215 217 219 220 221 219 223 232 234 233 233
219 226 238 248 244 227 220 220 221 217 215 226 237 235 228 230 236 237 234 231 227 235 248 253 257 256 242 206 186 192 194 206 234 237 186 174 167 160 173 186 190 196 198 200 206 207 206 208 208 207 207 207 205 205 206 205 203 203 204 205 205 208 212 214 215 217 219 220 220 219 219 220 220 218 216 214 215 217 219 220 219 217 218 226 232 233 232
225 220 223 234 245 249 241 229 231 236 225 213 219 235 237 234 236 233 233 239 237 233 235 241 250 256 256 248 226 217 203 200 218 231 223 207 183 174 193 206 203 204 202 201 206 208 207 209 209 208 208 208 207 205 205 205 204 203 205 206 206 208 211 213 213 214 217 218 218 218 218 218 218 217 216 214 214 217 220 221 219 219 221 224 228 231 232
241 227 218 219 228 243 250 242 235 240 241 222 209 222 233 240 246 236 228 232 233 230 232 233 234 240 246 250 246 244 232 215 216 222 227 225 200 185 197 209 209 206 203 202 205 208 210 210 209 209 208 207 207 205 205 205 203 203 206 207 206 207 209 210 210 213 215 215 216 217 215 214 214 216 216 215 214 216 220 222 219 218 221 223 227 230 231
240 237 227 221 221 228 236 238 236 238 241 237 229 223 217 223 238 245 242 242 235 222 227 234 234 233 236 236 238 247 248 235 232 228 222 224 225 210 199 198 204 209 206 203 205 207 209 210 210 210 209 207 207 206 205 204 201 201 205 207 205 205 207 207 207 209 212 213 214 214 213 212 212 214 214 214 215 216 219 221 219 217 220 223 227 230 230
233 236 236 235 233 232 228 226 233 240 240 235 235 237 226 217 218 228 236 242 248 241 235 240 242 245 255 252 233 240 254 258 258 258 238 221 222 228 219 203 203 208 206 205 206 207 208 210 212 211 208 208 208 205 205 204 201 201 204 206 204 202 204 204 204 207 210 210 210 212 213 213 213 215 216 216 217 217 218 220 218 218 220 223 226 228 228
231 228 230 233 231 234 242 236 228 238 247 246 244 249 247 238 233 240 237 232 232 234 241 255 260 260 268 271 252 237 248 257 259 261 257 243 231 235 239 229 211 203 203 205 206 207 210 209 207 205 205 207 206 203 204 204 201 200 202 203 201 199 200 202 203 205 205 206 209 213 215 216 216 217 217 218 217 216 217 221 222 222 223 223 224 225 225
226 220 219 230 239 241 248 250 236 230 240 245 246 248 249 251 270 309 315 286 253 234 224 228 232 237 249 260 260 247 244 249 253 254 253 253 254 250 249 251 238 215 209 211 210 210 210 202 198 201 203 204 202 201 202 203 201 200 202 201 197 196 198 200 202 203 205 208 213 215 215 215 215 214 216 219 218 215 216 220 224 226 226 225 225 224 223
222 229 223 232 250 246 239 242 246 249 244 236 237 252 261 270 310 3 7 345 327 323 280 234 236 241 237 238 243 240 239 243 248 252 253 253 255 254 251 254 252 238 228 224 218 213 207 198 196 200 199 198 198 197 198 200 200 199 200 198 194 193 196 199 201 205 209 213 214 214 214 213 213 216 219 219 216 212 213 217 221 225 227 226 225 223 222
209 226 230 232 234 228 220 215 177 38 340 278 116 333 294 10 30 24 7 343 339 348 348 347 348 321 269 242 227 224 228 235 239 243 249 250 252 255 251 248 249 243 233 223 216 211 206 199 197 197 195 194 194 194 194 195 195 196 197 194 191 190 192 194 197 203 209 212 212 212 207 205 209 214 212 208 207 209 214 217 220 223 228 228 224 222 223
204 218 224 225 228 221 149 179 129 77 27 28 62 276 261 39 39 25 15 357 344 346 347 350 357 345 301 283 252 225 221 230 239 241 242 241 242 246 247 247 245 238 226 214 208 205 201 196 195 194 193 191 191 191 191 189 188 190 192 190 188 189 190 193 197 202 206 209 211 210 202 198 203 205 200 199 204 211 216 218 220 224 226 225 222 221 221
212 222 228 227 238 218 153 156 101 76 43 17 55 223 249 25 25 18 21 10 353 354 352 344 334 317 307 310 304 285 255 243 250 250 247 243 239 235 240 251 246 223 208 199 195 195 197 197 194 192 190 188 188 190 188 185 184 186 186 185 185 187 188 190 195 200 202 205 208 208 203 198 196 196 196 193 197 209 216 216 219 222 223 221 220 219 217
214 222 232 234 242 182 162 167 151 127 103 3 236 220 280 8 1 6 7 355 355 357 345 334 320 305 304 306 305 299 285 273 271 267 259 260 262 246 240 243 229 198 190 190 192 197 200 197 190 186 186 186 186 187 185 181 181 181 181 183 183 181 181 183 188 192 194 198 201 201 198 194 190 192 196 190 192 208 217 214 215 219 220 219 218 219 219
214 224 233 235 231 198 181 178 168 168 177 178 217 263 9 10 5 8 1 351 353 350 335 324 314 307 308 311 305 291 281 286 299 304 279 255 270 272 247 227 210 194 188 191 196 198 195 190 185 183 184 183 182 183 181 178 176 175 176 176 174 172 173 175 180 185 189 193 195 192 190 189 187 189 192 188 194 209 218 218 216 220 221 220 220 223 225
210 218 220 234 233 189 182 186 175 171 180 107 40 5 20 31 28 20 11 5 359 348 337 328 315 309 310 310 308 296 282 281 297 319 296 237 228 274 234 199 191 190 187 187 191 190 186 183 182 181 181 180 178 177 175 173 171 169 169 169 168 169 173 175 180 187 192 194 190 185 186 188 186 186 188 192 201 211 218 220 219 219 221 221 221 225 227
215 216 217 240 247 168 174 179 141 106 103 75 52 38 38 36 29 24 16 9 1 349 338 327 315 308 304 298 300 302 289 276 272 299 318 247 189 212 191 173 175 179 180 182 182 180 179 178 178 179 178 175 172 170 168 167 165 163 165 167 169 172 175 178 181 185 189 189 182 180 184 187 185 184 188 197 208 213 216 219 221 220 219 218 217 218 218
202 220 230 159 120 153 155 130 103 102 95 75 66 65 58 45 33 29 22 10 1 352 338 323 312 311 315 314 313 315 307 294 276 291 326 355 232 207 187 176 176 172 172 175 172 170 172 172 172 174 174 169 164 163 162 162 161 162 165 167 168 171 175 175 175 176 178 177 173 175 181 184 185 187 193 202 210 213 217 223 225 223 220 217 216 214 209
94 53 33 66 96 145 146 129 124 124 104 82 78 72 59 51 43 34 29 24 19 15 9 353 337 339 351 354 345 336 332 335 329 265 256 336 26 267 208 192 184 174 168 167 164 161 162 164 164 164 164 161 157 156 157 159 160 162 164 163 162 166 168 168 168 172 173 170 170 175 180 184 188 193 199 207 213 218 223 227 228 226 222 218 218 217 211
113 64 38 45 48 74 128 126 116 103 91 85 85 83 74 67 63 56 50 46 38 33 32 26 13 7 7 7 7 3 351 348 350 288 229 209 177 212 231 216 177 164 158 156 155 154 153 153 153 153 154 155 154 153 154 156 157 157 158 158 159 162 165 167 170 172 172 173 176 180 183 187 191 197 203 211 219 224 227 226 227 227 224 221 221 218 212
98 101 79 61 59 61 79 100 99 84 80 79 78 84 87 82 73 65 58 54 48 42 38 34 28 23 17 10 11 15 18 34 38 33 173 166 142 135 144 155 162 156 150 147 147 146 143 142 145 147 147 147 147 146 145 147 152 155 156 157 160 163 164 166 168 168 168 174 181 183 185 188 192 199 205 210 214 220 221 220 221 221 221 222 221 216 211
96 89 70 61 66 63 63 80 94 90 84 82 77 77 80 78 73 67 60 56 52 47 42 38 34 31 25 22 23 22 34 69 72 63 95 119 122 125 133 143 152 148 142 137 134 131 129 129 133 135 132 128 130 132 133 142 154 157 155 155 158 159 158 159 162 165 170 179 185 185 184 187 191 195 201 205 208 214 217 217 219 219 218 217 215 212 212
137 93 59 53 74 72 59 66 83 94 94 89 82 76 73 71 70 69 67 60 53 49 45 40 38 35 30 32 36 28 23 48 65 66 88 101 105 115 127 133 136 132 127 124 121 119 122 125 125 124 123 123 129 138 143 148 153 155 153 153 153 151 152 154 159 166 174 181 185 184 183 190 195 195 197 201 206 214 220 222 224 223 216 211 207 206 209
98 97 93 82 87 93 78 69 78 89 92 89 85 80 76 74 71 70 68 61 53 50 45 39 39 39 35 36 41 36 26 30 47 64 83 91 93 99 110 115 115 111 107 107 107 108 113 118 117 116 119 124 133 142 146 147 150 152 151 150 148 148 154 154 151 160 174 180 181 183 185 191 199 201 204 208 212 216 218 219 219 213 206 203 199 193 194
52 97 99 93 96 98 90 78 75 75 76 80 81 79 78 77 74 73 71 65 57 53 48 41 38 39 37 37 39 39 37 39 45 57 73 82 86 90 92 92 95 95 94 95 97 99 104 109 109 110 114 121 129 137 141 144 148 147 145 147 150 155 162 160 151 158 176 180 177 185 194 196 198 201 207 215 218 216 210 207 207 203 195 191 192 188 183
129 123 111 106 106 104 97 84 74 69 69 72 73 74 77 78 76 75 75 71 63 55 49 45 41 41 41 40 36 32 33 35 38 47 57 63 68 73 75 76 81 86 88 92 97 103 108 110 112 113 111 113 121 128 134 138 140 139 142 152 160 163 167 166 160 165 179 182 180 192 201 200 198 200 206 214 216 211 200 193 194 193 187 183 185 188 187
104 133 126 120 111 101 95 86 74 68 67 68 69 71 75 77 75 73 73 71 62 49 42 42 43 40 41 42 37 32 31 33 33 37 42 45 48 54 60 66 72 77 84 90 95 103 110 113 118 119 116 117 123 127 133 138 138 136 147 163 167 166 169 170 167 171 182 183 186 198 201 199 199 201 205 212 212 206 197 189 186 188 187 186 190 197 196
63 83 106 109 94 79 78 80 78 73 68 66 66 61 58 63 70 69 69 67 56 41 32 34 37 37 36 39 37 32 31 31 30 30 32 32 35 40 49 59 65 69 78 85 87 90 95 101 107 112 115 122 127 131 137 139 137 136 149 161 161 163 170 173 168 167 175 180 185 189 184 178 178 183 194 202 202 199 197 194 191 190 190 192 197 202 198
57 58 68 81 83 78 77 81 84 79 70 65 63 60 57 59 59 57 56 53 48 39 21 15 21 27 28 28 26 23 24 26 27 27 26 25 28 38 48 56 61 64 67 73 77 83 91 97 103 107 111 118 126 133 141 144 147 153 161 161 157 157 162 164 158 158 164 168 162 157 153 151 155 168 179 182 181 185 189 192 194 193 191 193 198 199 195
62 61 64 68 72 73 70 70 73 72 66 63 61 58 58 60 57 54 49 41 40 50 21 8 16 25 26 21 15 14 15 17 19 21 21 20 27 42 52 57 63 69 70 70 74 81 87 94 101 107 113 119 129 139 146 154 164 171 172 167 162 157 152 153 161 163 162 160 156 152 151 153 160 167 166 159 162 169 172 180 193 197 195 196 201 202 200
72 70 67 66 66 65 61 60 62 62 60 61 61 57 57 60 61 59 53 44 43 54 46 14 20 31 32 26 24 25 25 18 9 11 17 20 26 38 51 57 61 64 65 66 67 67 68 79 94 104 110 118 129 138 142 145 149 153 152 150 151 151 150 156 164 164 159 162 168 163 157 157 161 162 157 156 160 163 165 175 192 200 198 199 204 207 209
76 73 70 68 66 65 62 60 60 60 59 60 61 58 58 60 62 63 59 52 49 49 41 21 18 38 36 29 31 36 38 27 6 355 1 18 25 29 40 51 51 46 46 51 54 49 43 66 111 121 123 130 139 143 143 143 143 148 151 148 149 154 158 159 160 161 162 167 169 162 157 160 164 163 162 162 163 165 172 186 200 204 202 204 207 212 219
79 75 72 71 71 69 68 65 63 63 63 62 60 58 58 60 62 63 62 59 57 54 47 39 41 54 50 39 42 47 41 29 18 4 354 9 22 24 32 44 40 31 33 42 44 36 23 36 124 131 136 153 161 157 154 151 148 152 156 154 156 163 163 158 160 167 169 167 163 161 164 167 166 166 169 170 170 173 180 191 203 208 201 199 208 219 224
79 76 73 73 74 74 74 74 71 69 67 62 60 59 60 62 64 62 61 62 62 60 53 47 47 52 49 45 54 59 46 33 27 14 359 358 3 9 28 43 34 12 5 19 28 28 23 32 135 140 147 157 161 162 160 154 148 147 149 150 157 164 161 159 164 166 163 163 166 170 173 171 167 170 175 176 175 179 183 188 197 198 179 171 197 222 230
80 81 76 71 69 69 74 81 83 80 76 69 64 62 62 64 65 64 62 61 59 55 54 53 52 51 44 41 53 58 49 43 34 12 1 4 4 358 13 37 33 6 346 341 343 344 337 314 192 170 172 165 160 163 167 160 153 149 146 148 161 166 164 165 167 161 157 165 171 170 169 170 171 171 170 169 170 174 175 175 180 180 174 178 195 214 228
81 82 78 74 71 69 71 72 69 68 69 67 65 64 64 64 66 66 64 61 58 56 55 54 52 54 57 57 57 53 52 59 58 33 12 18 22 9 15 30 24 350 335 323 294 274 274 259 227 221 214 184 170 179 185 177 166 155 149 150 163 169 168 169 168 164 165 173 172 165 161 168 170 163 157 157 162 167 169 168 168 179 194 200 202 213 225
78 77 75 74 73 73 73 72 68 65 64 63 64 66 65 63 63 65 65 63 61 60 61 55 48 49 56 60 60 60 62 64 61 50 33 28 23 19 32 33 16 353 339 299 255 252 269 260 237 220 203 182 184 203 197 183 178 179 172 166 168 171 172 174 176 179 180 174 167 163 165 170 170 165 161 162 164 164 169 171 168 177 204 209 204 210 220
74 75 75 74 75 76 77 75 74 73 70 66 64 65 65 65 65 64 66 66 61 58 61 61 53 51 56 58 59 63 64 57 49 49 53 44 27 25 47 72 41 43 39 8 297 324 301 273 243 218 199 185 204 222 206 186 182 188 188 187 188 184 179 181 187 189 182 168 161 168 173 170 164 160 161 166 167 165 170 174 171 177 199 209 206 208 213
75 77 78 77 77 79 78 75 74 73 72 69 66 63 62 65 66 64 64 65 63 58 57 56 54 59 67 66 62 62 63 58 51 48 50 53 53 49 50 204 194 25 12 12 18 2 336 306 149 169 185 181 209 228 214 197 195 199 195 192 192 184 176 176 181 180 175 167 165 170 173 169 165 164 169 174 173 172 175 179 178 182 195 204 205 201 190
82 82 82 82 80 78 75 73 71 70 72 73 72 69 66 66 67 65 60 58 61 65 63 56 54 58 61 58 54 58 61 59 54 49 44 53 78 79 72 80 83 62 38 44 35 18 22 64 78 89 144 128 130 238 215 202 207 214 205 183 177 175 173 169 165 167 171 172 169 169 172 174 170 165 169 174 170 169 175 178 180 186 190 190 190 187 173
83 82 80 79 78 76 75 73 70 68 69 72 74 73 71 69 69 69 65 60 61 66 65 60 58 62 61 52 46 50 54 51 48 52 55 59 72 78 71 65 59 49 49 57 52 46 63 73 67 60 85 86 75 130 184 182 188 191 180 165 163 168 171 169 167 173 181 182 177 175 181 181 170 159 162 171 169 169 174 172 173 184 191 189 189 192 186
78 76 75 75 75 75 76 78 77 74 72 71 71 72 72 69 69 69 67 64 63 62 59 54 52 55 59 58 51 48 50 50 50 53 57 59 63 66 62 55 48 46 53 58 55 50 61 75 76 71 71 68 69 116 144 152 152 149 152 156 156 164 171 169 167 174 180 180 178 180 181 176 168 164 167 169 166 172 182 182 178 186 192 185 181 188 189
77 74 73 75 76 76 77 77 77 75 73 70 68 67 67 68 68 67 63 61 60 57 53 51 48 44 44 50 54 54 52 50 52 57 58 57 57 60 58 50 44 43 53 62 57 44 40 52 64 65 64 67 89 110 114 114 112 121 144 155 156 169 177 174 172 176 176 172 175 184 182 173 167 167 173 177 175 179 189 194 191 190 190 183 177 184 195
78 76 74 74 77 78 79 78 75 71 69 69 69 67 64 63 64 65 65 63 60 56 52 50 48 45 41 42 49 55 55 50 51 60 61 55 51 52 53 48 39 34 45 67 69 56 43 46 54 61 67 79 99 105 95 83 80 100 130 144 147 161 175 180 183 187 184 177 177 187 183 171 165 169 181 188 188 183 183 188 188 185 188 195 202 210 215
81 83 83 82 82 82 82 81 79 75 71 71 71 70 69 66 61 59 59 58 57 58 57 51 46 45 45 42 44 55 60 57 54 58 60 54 48 47 45 40 32 26 26 42 57 56 45 40 42 53 66 78 98 94 72 56 64 103 115 144 159 161 173 181 180 180 180 174 169 173 178 177 180 188 192 192 190 188 186 189 191 191 196 205 213 219 221
84 85 86 86 86 83 78 77 81 84 82 76 67 64 69 71 65 59 57 54 51 57 64 60 52 46 43 41 45 55 61 59 55 55 56 53 52 51 44 33 27 27 29 31 34 40 42 37 37 45 56 77 111 98 68 44 45 88 79 75 206 179 179 178 165 165 185 186 178 180 191 196 193 188 185 185 193 197 195 195 199 205 213 217 218 220 225
81 82 84 87 89 86 78 73 74 76 75 69 61 57 59 59 55 53 53 46 37 44 67 74 65 51 40 37 44 52 53 52 52 50 44 39 45 53 46 31 25 29 34 29 23 25 30 28 25 25 34 73 125 112 71 35 343 352 44 126 167 162 184 193 184 180 189 191 186 189 194 194 189 188 188 191 198 204 208 213 214 215 219 221 216 217 229
81 83 84 87 89 87 80 75 73 71 66 62 60 59 56 49 43 38 28 18 17 35 77 82 65 49 42 44 47 45 43 45 45 39 33 31 35 40 35 26 22 24 24 15 10 14 19 20 16 9 6 9 174 150 66 37 285 267 309 219 185 172 182 197 198 191 186 185 187 191 190 188 189 196 202 205 206 210 219 226 224 222 226 231 228 230 248
79 78 75 76 79 79 77 78 78 71 62 56 56 55 51 48 46 36 20 15 22 40 66 69 52 41 40 45 46 42 40 41 37 29 25 21 20 19 17 13 12 14 14 5 355 352 356 3 7 5 359 343 294 263 299 259 205 200 216 261 239 228 217 207 205 206 206 202 196 194 199 207 211 211 214 220 223 222 223 226 227 230 239 245 243 244 253
62 59 59 61 60 54 52 59 63 58 52 50 49 42 34 38 47 44 30 20 22 29 41 46 39 32 29 33 36 37 37 36 32 24 16 9 6 7 6 0 358 360 2 357 345 336 338 348 356 358 359 356 347 327 317 297 255 229 222 227 236 237 239 234 218 205 206 212 212 212 219 226 226 223 226 233 235 230 224 222 227 236 245 247 245 243 246
53 50 50 52 50 46 43 44 44 42 42 44 41 31 22 24 33 38 32 19 11 13 21 29 27 21 14 9 11 17 19 15 11 9 9 7 0 354 349 346 345 344 343 342 341 339 339 341 342 344 350 358 356 337 314 311 298 272 252 240 228 221 234 250 250 229 214 221 231 234 234 232 230 229 232 237 239 238 235 235 237 240 240 238 237 238 241
54 47 47 50 51 48 46 42 38 35 33 33 29 23 16 13 17 23 24 16 6 3 6 8 10 10 6 358 353 355 356 351 347 346 350 351 348 341 334 332 334 336 337 339 339 338 337 335 330 327 326 328 325 315 304 302 303 298 287 274 260 248 245 252 257 248 237 236 241 242 239 240 243 242 239 238 240 242 243 245 246 247 245 241 240 241 245
48 42 47 54 53 49 47 45 39 34 32 31 26 18 10 7 8 11 13 9 4 1 360 356 352 351 349 344 341 343 342 338 336 336 336 336 336 335 331 330 332 336 339 338 333 329 328 327 325 323 321 319 319 319 317 311 306 305 310 313 305 291 279 272 265 254 246 246 248 247 246 250 255 253 245 242 246 249 249 248 247 247 249 251 250 248 248